{"data":{"norad_id":55462,"epoch":"2026-05-24T14:20:30.368544Z","epoch_age_seconds":106888,"freshness":"FRESH","line1":"1 55462U 23015P   26144.59757371  .00000501  00000+0  27725-4 0  9996","line2":"2 55462  43.0004 259.8127 0000983 261.3423  98.7317 15.27580325182330","mean_motion":15.27580325,"eccentricity":9.83e-5,"inclination_deg":43.0004,"raan_deg":259.8127,"arg_perigee_deg":261.3423,"mean_anomaly_deg":98.7317,"bstar":2.7725e-5,"rev_number":18233,"period_min":94.266728657951,"perigee_km":482.37366837533,"apogee_km":483.72257737049,"semimajor_km":6861.1851228729,"source":"CELESTRAK","updated_at":"2026-05-25T13:38:17.805000Z"}}